Terminal Aerodrome Forecast
Issued by NWS Portland, OR

Home | Current Version | Previous Version | Text Only | Print | Product List | Glossary On
Versions: 1 2 3 4 5 6 7 8 9 10 11 12 13 14 15 16 17 18 19 20 21 22 23 24 25 26 27 28 29 30 31 32 33 34 35 36 37 38 39
041
FTUS46 KPQR 291324 AAB
TAFEUG
TAF AMD
KEUG 291324Z 2913/3012 VRB03KT P6SM MIFG SKC
     FM291600 VRB03KT P6SM SKC
     FM292100 26008KT P6SM BKN100
     FM300500 20009KT P6SM OVC050
     FM300700 19010KT P6SM -RA SCT035 OVC050=

USA.gov is the U.S. government's official web portal to all federal, state and local government web resources and services.